EW2244 Weather Reports


Display with metric or nautical units.
time (UTC)temp
F
wind
direction
speed
MPH
gust
MPH
rain 1hr
in
rain 24hr
in
rain mn
in
humidity
%
barometer
mb
20260505062142 53 38 1.0 5.0 0.67 1.22 0.31 93 1013.4
20260505061127 53 115 1.0 11.0 0.55 1.02 0.26 93 1013.2
20260505060138 53 5 2.0 9.0 0.55 0.94 0.24 93 1013.3
20260505055124 53 34 1.0 5.0 0.47 0.83 0.21 93 1013.2
20260505054131 53 49 1.0 6.0 0.47 0.75 0.19 93 1013.3
20260505053136 53 18 0.0 4.0 0.47 0.67 0.17 92 1013.2
20260505052128 53 68 0.0 2.0 0.39 0.55 0.14 91 1013.1
20260505051134 53 68 0.0 5.0 0.31 0.47 0.12 89 1013.0
20260505050141 53 75 3.0 9.0 0.28 0.39 0.10 88 1012.9
20260505041130 54 244 1.0 2.0 0.16 0.16 0.04 83 1012.9
20260505040154 54 244 0.0 2.0 0.12 0.12 0.03 82 1012.8
20260505035143 55 244 1.0 3.0 0.08 0.08 0.02 81 1012.9
20260505034128 55 245 0.0 5.0 0.04 0.04 0.01 79 1012.9
20260505033135 56 70 2.0 3.0 0.00 0.00 0.00 78 1012.9
20260505032139 57 235 0.0 4.0 0.00 0.00 0.00 72 1012.9
20260505031130 57 257 2.0 4.0 0.00 0.00 0.00 70 1012.8
20260505030136 57 350 0.0 2.0 0.00 0.00 0.00 68 1012.8
20260505025203 57 345 0.0 1.0 0.00 0.00 0.00 70 1012.9
20260505024142 57 345 0.0 1.0 0.00 0.00 0.00 69 1013.0
20260505023138 57 348 0.0 3.0 0.00 0.00 0.00 66 1013.2
20260505022146 58 271 0.0 1.0 0.00 0.00 0.00 69 1013.2
20260505021129 58 271 0.0 1.0 0.00 0.00 0.00 69 1013.4
20260505020137 58 271 0.0 1.0 0.00 0.00 0.00 66 1013.7
20260505015144 59 271 1.0 2.0 0.00 0.00 0.00 62 1013.5
20260505014133 59 285 1.0 3.0 0.00 0.00 0.00 62 1013.5
20260505013141 59 250 1.0 4.0 0.00 0.00 0.00 61 1013.8
20260505012127 58 242 1.0 3.0 0.00 0.00 0.00 62 1013.9
20260505011134 58 234 0.0 3.0 0.00 0.00 0.00 63 1014.1
20260505010124 58 233 0.0 1.0 0.00 0.00 0.00 64 1014.2
20260505005131 58 233 1.0 2.0 0.00 0.00 0.00 63 1014.4
20260505004134 58 220 0.0 1.0 0.00 0.00 0.00 69 1014.6
20260505003142 58 220 0.0 2.0 0.00 0.00 0.00 71 1014.7
20260505002152 58 220 0.0 2.0 0.00 0.00 0.00 70 1014.9
20260505001136 58 220 0.0 2.0 0.00 0.00 0.00 69 1015.1
20260505000141 58 220 0.0 1.0 0.00 0.00 0.00 69 1015.2
20260504235125 58 220 0.0 0.0 0.00 0.00 0.00 68 1015.3
20260504234135 59 220 0.0 0.0 0.00 0.00 0.00 68 1015.5
20260504233142 59 220 0.0 1.0 0.00 0.00 0.00 69 1015.5
20260504232127 59 220 0.0 0.0 0.00 0.00 0.00 68 1015.6
20260504231135 58 220 0.0 0.0 0.00 0.00 0.00 67 1015.8
20260504230125 58 220 0.0 0.0 0.00 0.00 0.00 67 1015.8
20260504225131 59 220 0.0 0.0 0.00 0.00 0.00 68 1015.8
20260504224137 59 220 0.0 1.0 0.00 0.00 0.00 67 1016.0
20260504223124 59 220 0.0 1.0 0.00 0.00 0.00 68 1016.1
20260504222155 59 220 0.0 0.0 0.00 0.00 0.00 69 1016.2
20260504221140 58 220 0.0 2.0 0.00 0.00 0.00 70 1016.2
20260504220125 59 220 0.0 2.0 0.00 0.00 0.00 70 1016.4
20260504215132 59 220 0.0 2.0 0.00 0.00 0.00 70 1016.4
20260504214140 59 220 1.0 3.0 0.00 0.00 0.00 70 1016.5
20260504213124 59 220 0.0 2.0 0.00 0.00 0.00 70 1016.6
20260504212130 59 220 0.0 3.0 0.00 0.00 0.00 70 1016.7
20260504211137 59 220 0.0 3.0 0.00 0.00 0.00 69 1016.7
20260504210125 60 220 0.0 2.0 0.00 0.00 0.00 67 1016.7
20260504205129 60 220 1.0 3.0 0.00 0.00 0.00 67 1016.8
20260504204133 60 220 1.0 2.0 0.00 0.00 0.00 65 1016.8
20260504203138 61 220 0.0 3.0 0.00 0.00 0.00 64 1016.9
20260504202142 61 220 0.0 1.0 0.00 0.00 0.00 65 1016.9
20260504201127 61 219 0.0 0.0 0.00 0.00 0.00 62 1016.8
20260504200128 61 220 0.0 0.0 0.00 0.00 0.00 61 1016.8
20260504195131 61 219 0.0 1.0 0.00 0.00 0.00 62 1016.7
20260504194139 61 220 0.0 0.0 0.00 0.00 0.00 61 1016.6
20260504193125 61 220 0.0 1.0 0.00 0.00 0.00 61 1016.6
20260504192144 61 220 0.0 3.0 0.00 0.00 0.00 59 1016.5
20260504191127 62 219 0.0 2.0 0.00 0.00 0.00 58 1016.4
20260504190135 62 219 0.0 2.0 0.00 0.00 0.00 58 1016.3
20260504185138 62 218 0.0 1.0 0.00 0.00 0.00 57 1016.3
20260504184201 63 218 0.0 2.0 0.00 0.00 0.00 56 1016.2
20260504183144 63 218 0.0 2.0 0.00 0.00 0.00 58 1016.4
20260504182125 63 218 0.0 2.0 0.00 0.00 0.00 60 1016.3
20260504181131 64 218 0.0 3.0 0.00 0.00 0.00 60 1016.3
20260504180136 64 218 0.0 2.0 0.00 0.00 0.00 58 1016.2
20260504175142 64 218 1.0 2.0 0.00 0.00 0.00 60 1016.3
20260504174124 65 216 1.0 2.0 0.00 0.00 0.00 56 1016.3
20260504173154 65 216 0.0 1.0 0.00 0.00 0.00 54 1016.2
20260504172138 66 216 0.0 1.0 0.00 0.00 0.00 53 1016.3
20260504171124 66 216 0.0 0.0 0.00 0.00 0.00 50 1016.2
20260504170130 66 216 0.0 1.0 0.00 0.00 0.00 48 1016.3
20260504160126 67 148 0.0 2.0 0.00 0.00 0.00 47 1016.4
20260504151139 68 176 1.0 3.0 0.00 0.00 0.00 44 1016.8
20260504150124 68 170 0.0 3.0 0.00 0.00 0.00 48 1016.9
20260504141131 68 250 1.0 4.0 0.00 0.00 0.00 44 1017.2
20260504140140 69 118 0.0 4.0 0.00 0.00 0.00 45 1017.3
20260504130138 69 94 2.0 4.0 0.00 0.00 0.00 45 1017.8
20260504120138 69 117 1.0 5.0 0.00 0.00 0.00 46 1018.1
20260504110137 68 148 1.0 6.0 0.00 0.00 0.00 45 1018.3
20260504100124 65 29 2.0 5.0 0.00 0.00 0.00 53 1018.7
20260504081139 62 45 0.0 1.0 0.00 0.00 0.00 66 1018.6
20260504080203 62 45 0.0 1.0 0.00 0.00 0.00 66 1018.6
20260504070132 61 11 0.0 1.0 0.00 0.00 0.00 67 1018.4